Location: Lane
(33.5226°N, 79.8788°W)
Time: 07:00:22
(UTC+00:00)

Tiros 1 despin weight - Pass Details

Date: 06 October 2022
Orbit: 590 x 637 km, 48.2° (Epoch: 28 November)

Event Time Altitude Azimuth Distance (km) Brightness Sun altitude
Rises 01:36:59 0° 313° (NW) 2,889 ? -33.5°
Reaches altitude 10° 01:39:25 10° 321° (NW) 1,990 ? -34.0°
Enters shadow 01:40:34 17° 328° (NNW) 1,592 ? -34.2°
Maximum altitude 01:43:43 39° 31° (NNE) 941 - -34.8°
Drops below altitude 10° 01:48:03 10° 101° (E) 2,008 - -35.7°
Sets 01:50:31 0° 109° (ESE) 2,919 - -36.2°
